Regional Weather Roundup
Issued by NWS

Home | Current Version | Previous Version | Text Only | Print | Product List | Glossary Off
Versions: 1 2 3 4 5 6 7 8 9 10 11 12 13 14 15 16 17 18 19 20 21 22 23 24 25 26 27 28 29 30 31 32 33 34 35 36 37 38 39 40 41 42 43 44 45 46 47 48 49 50

000
ASUS43 KMKX 211100
RWRWI

WISCONSIN REGIONAL WEATHER ROUNDUP
NATIONAL WEATHER SERVICE MILWAUKEE/SULLIVAN WI
600 AM CDT MON APR 21 2014

NOTE: "FAIR" INDICATES FEW OR NO CLOUDS BELOW 12,000 FEET WITH NO
SIGNIFICANT WEATHER AND/OR OBSTRUCTIONS TO VISIBILITY.

WIZ001-002-006>008-014>016-023>028-211200-
NORTHWEST WISCONSIN

CITY           SKY/WX    TMP DP  RH WIND       PRES   REMARKS
SUPERIOR ARPT  PTCLDY    32  30  93 W7        29.92R WCI  26
ASHLAND        PTCLDY    30  29  96 S3        29.88F
HAYWARD        MOCLDY    34  30  85 CALM      29.88F
SIREN          CLOUDY    42  39  90 SE5       29.88F
RICE LAKE      FOG       48  47  95 SE6       29.90F VSB<1/4
LADYSMITH      CLOUDY    49  48  97 CALM      29.93S FOG
EAU CLAIRE     FOG       51  50  96 CALM      29.89F VSB 1
MENOMONIE      FOG       52  51  97 CALM      29.89F VSB 1/2
NEW RICHMOND   CLOUDY    54  54  98 S3        29.89F FOG
OSCEOLA        CLOUDY    52  51  99 CALM      29.91S
$$

WIZ003>005-009-010-017-018-211200-
NORTH CENTRAL WISCONSIN

CITY           SKY/WX    TMP DP  RH WIND       PRES   REMARKS
WOODRUFF       HAZE      39  33  78 CALM      29.92F VSB 1/4
RHINELANDER    FOG       39  39 100 CALM      29.92F VSB 1/4
EAGLE RIVER    FOG       34  34 100 CALM      29.92F VSB<1/4
LAND O LAKES   CLOUDY    29  28  96 CALM      29.94S
PHILLIPS       FOG       44  44 100 CALM      29.91F VSB 1/4
TOMAHAWK       FOG       41  40  97 CALM      29.92F VSB 1/4
MEDFORD        FOG       50  50 100 CALM      29.92F VSB 1/2
MERRILL        FOG       45  45 100 CALM      29.93S VSB 1/4
$$

WIZ029-030-035-036-043>047-211200-
CENTRAL WISCONSIN

CITY           SKY/WX    TMP DP  RH WIND       PRES   REMARKS
WAUSAU         FOG       49  49 100 SE3       29.90F VSB 1/4
MOSINEE        FOG       48  48 100 E3        29.92F VSB 1/4
MARSHFIELD     FOG       51  49  92 NE6       29.91F VSB<1/4
STEVENS POINT  FOG       48  48  99 CALM      29.93F VSB 1/2
WAUPACA        FOG       54  52  94 CALM      29.93F VSB 3/4
WAUTOMA        CLOUDY    52  52 100 S5        29.94R FOG
WISC RAPIDS    FOG       51  50  96 CALM      29.91F VSB 1/4
CAMP DOUGLAS   CLOUDY    54  54 100 E8        29.89F FOG
$$

WIZ011>013-019>022-031-037>040-048>050-211200-
NORTHEAST WISCONSIN

CITY           SKY/WX    TMP DP  RH WIND       PRES   REMARKS
ANTIGO         FOG       43  43 100 CALM      29.93F VSB<1/4
STURGEON BAY   CLOUDY    45  39  81 CALM      29.93S
GREEN BAY      LGT RAIN  49  48  97 N3        29.92F FOG
MANITOWOC      NOT AVBL
APPLETON       DRIZZLE   50  48  93 CALM      29.93F
CLINTONVILLE   FOG       48  48 100 CALM      29.93F VSB 1/2
OSHKOSH        CLOUDY    50  47  89 CALM      29.93F FOG
$$

WIZ032>034-041-042-053>061-211200-
SOUTHWEST WISCONSIN

CITY           SKY/WX    TMP DP  RH WIND       PRES   REMARKS
LA CROSSE      CLOUDY    53  51  93 CALM      29.91S FOG
SPARTA         FOG       51  51  99 CALM      29.92S VSB 1
VIROQUA        CLOUDY    55  55 100 CALM      29.92R
BOSCOBEL       FOG       51  50  96 CALM      29.92S VSB 1/4
PRAIRIE DU CHI FOG       52  51  97 CALM      29.92S VSB 1/4
PLATTEVILLE    FAIR      56  50  80 CALM      29.93S
$$

WIZ056-057-062-063-064-067-068-211200-
SOUTH CENTRAL WISCONSIN

CITY           SKY/WX    TMP DP  RH WIND       PRES   REMARKS
BARABOO/DELLS  CLOUDY    53  50  92 CALM      29.92F FOG
LONE ROCK      NOT AVBL
WATERTOWN      CLOUDY    56  49  78 N5        29.93S
MADISON        CLOUDY    55  50  83 CALM      29.93F
MIDDLETON      FAIR      57  49  73 NW3       29.93F
MONROE         CLOUDY    58  46  64 S8        29.93F
JANESVILLE     CLOUDY    61  45  55 S9        29.93F
$$

WIZ051-052-058>065-066-070>072-211200-
SOUTHEAST WISCONSIN

CITY           SKY/WX    TMP DP  RH WIND       PRES   REMARKS
MILWAUKEE      CLOUDY    59  51  75 S3        29.93F
WAUKESHA       PTCLDY    57  50  77 SW9       29.94F
MILWAUKEE/TIMM CLOUDY    59  48  67 SW6       29.93F
RACINE         CLOUDY    60  45  57 SW8       29.95F
BURLINGTON     CLOUDY    56  46  68 SW6       29.94F
KENOSHA        CLOUDY    60  45  57 SW9       29.94F
FOND DU LAC    CLOUDY    51  47  86 CALM      29.93F
SHEBOYGAN      CLOUDY    51  44  77 N5        29.93S
WEST BEND      CLOUDY    57  45  62 NW6       29.94S
JUNEAU         DRIZZLE   55  47  75 CALM      29.95S
$$

LSZ147-162-211200-
LAKE SUPERIOR

STATION/POSITION TIME  TEMP    WIND        PRES    WAVE
                       AIR SEA DIR/SP/G            HT/PER
                 (UTC) (F)     (DEG/KT/KT) (MB)    (FT/S)
DEVILS ISLAND    1000   43     100/  6/  7 1012.7F
PORT WING        1040   33      CALM  /  7 1012.2F
SAXON HARBOR     1000             CALM     1012.5F
$$

LMZ867-665-643>646-211200-
LAKE MICHIGAN

STATION/POSITION TIME  TEMP    WIND        PRES    WAVE
                       AIR SEA DIR/SP/G            HT/PER
                 (UTC) (F)     (DEG/KT/KT) (MB)    (FT/S)
NORTHPORT PIER   1040   38      CALM  /  1 1013.5F
SISTER BAY       1009   39        CALM       N/A
KEWAUNEE LAKESHO 1000   44     320/  2/  4 1013.8F
SHEBOYGAN LAKESH 1000   48     210/  7/  8 1014.1S
PORT WASHINGTON  1030          280/  4/ 15 1013.5F
MILWAUKEE LAKESH 1000   62     250/  9/ 11   N/A
KENOSHA   LAKESH 1000   62     210/  7/  8   N/A
$$

TC  - TEMPERATURE IN CELSIUS
VSB - VISIBILITY IN STATUTE MILES
WCI - WIND CHILL INDEX
HX  - HEAT INDEX




USA.gov is the U.S. government's official web portal to all federal, state and local government web resources and services.